Powrót do katalogu

STARLINK-11508

AktywnyŁącznośćVLEO
NORAD 62515·PAYLOAD·🇺🇸 United States

Wystrzelony Jan 8, 2025 z Cape Canaveral Space Force Station

Loading…

Następne Przeloty (najbliższe 24 godziny)

TLE

ŚwieżeSource: CelesTrak SupGP

Epoka: Sep 14, 2026, 21:12 UTC

1 62515C 25004E   26257.88381944  .00061711  00000+0  47908-3 0  2570
2 62515  43.0008  10.1499 0001701 266.1267 174.4589 15.70819043    16

Śledź STARLINK-11508 w czasie rzeczywistym z AllMySat

Download on the App Store